Zurück zum Katalog

IRIDIUM 33 DEB

AktivPO
NORAD 34540·DEBRIS·🇺🇸 United States

Gestartet Sep 14, 1997 von Baikonur Cosmodrome

Loading…

Nächste Überflüge (nächste 24 Stunden)

TLE

AktuellSource: Space-Track

Epoche: Sep 14, 2026, 06:09 UTC

1 34540U 97051JH  26257.25625950  .00006120  00000-0  79618-3 0  9997
2 34540  86.3138 181.0758 0012106 301.0610 210.7220 14.80463388930919

Verfolge IRIDIUM 33 DEB in Echtzeit mit AllMySat

Download on the App Store